C/2016 P4 ( PanSTARRS )

Japanese version
Home page
Updated on November 14, 2016

---------------------------------------------------------------------

* Profile

Discovery Date August 7, 2016
Magnitude 21.7 mag
Discoverer Pan-STARRS 1 telescope (Haleakala)

* Orbital Elements

Epoch 2016 Oct. 19.0 TT = JDT 2457680.5
T 2016 Oct. 16.68099 TT                                 MPCW
q   5.8889587            (2000.0)            P               Q
z  +0.0030351      Peri.  356.02058     +0.73497149     +0.60041744
 +/-0.0000152      Node   320.79301     -0.60757000     +0.37670854
e   0.9821266      Incl.   29.90399     -0.30112390     +0.70540030
From 37 observations 2016 July 31-Sept. 7, mean residual 0".3.

* Magnitudes Graph

        m1 = 10.5 + 5 log d + 10.0 log r

---------------------------------------------------------------------

The orbital elements are published on M.P.E.C. 2016-U66.
The magnitudes graphs are made with Comet for Windows.

---------------------------------------------------------------------

Copyright(C) Seiichi Yoshida (comet@aerith.net). All rights reserved.